Flag for Norway

Past Weather in Førde, Norway — Yesterday and Last 2 Weeks

Now
50 °F

Sprinkles. Broken clouds.


Feels Like: 45 °F
Forecast: 53 / 41 °F
Wind: 15 mph from Northwest

Location: Forde / Bringeland

Current Time: Jul 6, 2020 at 7:46:15 am

Latest Report: Jul 6, 2020 at 7:20 am


Visibility: N/A

Pressure: 29.15 "Hg

Humidity: 82%

Dew Point: 45 °F

Location of FørdeLocation

Past Weather in Førde — Graph

°F

Førde Temperature Yesterday

Maximum temperature yesterday: 52 °F (at 1:50 pm)
Minimum temperature yesterday: 48 °F (at 7:50 pm)
Average temperature yesterday: 50 °F

High & Low Weather Summary for the Past Weeks

 TemperatureHumidityPressure
High81 °F (Jun 26, 6:50 pm)100% (Jun 22, 10:20 am)30.33 "Hg (Jun 22, 10:20 am)
Low39 °F (Jul 3, 5:50 am)34% (Jun 26, 6:50 pm)29.00 "Hg (Jul 5, 5:20 pm)
Average57 °F68%29.70 "Hg
* Reported Jun 21 6:50 pm — Jul 6 6:20 am, Førde. Weather by CustomWeather, © 2020

Note: Actual official high and low records may vary slightly from our data, if they occured in-between our weather recording intervals... More about our weather records

Førde Weather History for the Previous 24 Hours

Scroll right to see more
 ConditionsComfort  
Time TempWeatherWind HumidityBarometerVisibility
6:20 am
Mon, Jul 6
50 °FLight rain. Broken clouds.15 mph88%29.12 "HgN/A
5:50 am48 °FDrizzle. Fog.2 mph100%29.09 "Hg2 mi
10:50 pm
Sun, Jul 5
50 °FLight rain. Fog.6 mph94%29.06 "Hg5 mi
10:20 pm48 °FLight rain. Fog.6 mph100%29.06 "Hg5 mi
9:50 pm50 °FDrizzle. Fog.3 mph94%29.03 "HgN/A
9:20 pm50 °FDrizzle. Fog.6 mph94%29.03 "Hg1 mi
8:50 pm50 °FDrizzle. Fog.6 mph94%29.03 "Hg1 mi
8:20 pm48 °FDrizzle. Dense fog.6 mph100%29.03 "Hg1 mi
7:50 pm48 °FDrizzle. Fog.6 mph100%29.03 "Hg1 mi
7:20 pm50 °FDrizzle. Fog.6 mph94%29.03 "Hg2 mi
6:50 pm50 °FDrizzle. Fog.5 mph94%29.03 "Hg2 mi
6:20 pm50 °FDrizzle. Fog.6 mph94%29.00 "Hg2 mi
5:50 pm52 °FLight rain. Fog.5 mph88%29.00 "Hg4 mi
5:20 pm52 °FLight rain. Broken clouds.6 mph88%29.00 "HgN/A
4:20 pm50 °FDrizzle. Broken clouds.7 mph88%29.03 "Hg6 mi
3:50 pm52 °FDrizzle. Broken clouds.9 mph88%29.03 "Hg6 mi
3:20 pm50 °FLight rain. Partly sunny.10 mph88%29.03 "HgN/A
2:50 pm52 °FLight rain. Partly sunny.9 mph82%29.03 "HgN/A
2:20 pm50 °FLight rain. Partly sunny.9 mph88%29.06 "HgN/A
1:50 pm52 °FLight rain. Partly sunny.8 mph88%29.06 "HgN/A
Weather by CustomWeather, © 2020

See weather overview